Location: Stillwell
(40.4602°N, 82.0928°W)
Time: 23:38:48
(UTC-04:00)

ARGOS - Pass Details

Date: 25 May 2018
Orbit: 819 x 835 km, 98.6° (Epoch: 18 August)

Event Time Altitude Azimuth Distance (km) Brightness Sun altitude
Exits shadow 22:15:23 16° 165° (SSE) 2,026 4.7 -14.2°
Maximum altitude 22:19:45 90° 67° (ENE) 835 3.1 -14.8°
Drops below altitude 10° 22:25:11 10° 347° (NNW) 2,447 6.5 -15.5°
Sets 22:27:33 0° 347° (NNW) 3,387 7.4 -15.8°
